Tracking 22130 objects as of 21-Jan-2021
HD Live streaming from Space Station
objects crossing your sky now

METEOR 2-8 DEB

Track METEOR 2-8 DEB now!
10-day predictions


NORAD ID: 36338
Int'l Code: 1982-025Y
Perigee: 837.5 km
Apogee: 871.5 km
Inclination: 82.5 °
Period: 101.9 minutes
Semi major axis: 7225 km
RCS: 0.0162 m2 (small)
Launch date: March 25, 1982
Source: Commonwealth of Independent States (former USSR) (CIS)
Launch site: PLESETSK MISSILE AND SPACE COMPLEX (PKMTR)

Note: This is SATELLITE DEBRIS
aabbcc
Your satellite tracking list
Your tracking list is empty




NASA's NSSDC Master Catalog

Two Line Element Set (TLE):
1 36338U 82025Y   21020.32298504  .00000909  00000-0  47332-3 0  9998
2 36338  82.5274  42.5649 0023546 132.4818 227.8354 14.13514904899313
Source of the keplerian elements: AFSPC